1531908000.75,55776,17.44,73410.3,9.79,9.91,9.91,0,*7C
1531908001.93,55777,17.44,73412.0,9.79,9.91,9.91,0,*7D
1531908003.11,55778,17.44,73408.0,9.79,9.67,9.71,0,*75
1531908004.33,55779,17.44,73410.3,9.77,9.57,9.63,0,*7A
1531908005.52,55780,17.44,73408.0,9.77,9.67,9.63,0,*7F
1531908006.72,55781,17.44,73408.5,9.77,9.67,9.75,0,*79
1531908007.95,55782,17.44,73408.5,9.77,9.53,9.47,0,*7C
1531908009.15,55783,17.44,73408.5,9.77,9.67,9.75,0,*7B
1531908010.38,55784,17.44,73410.8,9.73,9.85,9.95,0,*7A
1531908011.61,55785,17.44,73410.8,9.73,9.89,9.95,0,*77
1531908012.81,55786,17.44,73408.0,9.77,9.99,9.99,0,*7D
1531908014.01,55787,17.44,73410.0,9.77,9.99,9.99,0,*7C
1531908015.19,55788,17.44,73406.8,9.79,9.95,10.05,0,*4C
1531908016.42,55789,17.44,73410.8,9.77,9.89,9.91,0,*7B
1531908017.61,55790,17.44,73414.8,9.79,10.03,10.09,0,*7E
1531908018.83,55791,17.44,73412.8,9.79,10.17,10.27,0,*76
1531908020.03,55792,17.44,73414.8,9.77,9.99,10.03,0,*43
1531908021.26,55793,17.44,73414.5,9.77,9.75,9.77,0,*7B
1531908022.52,55794,17.44,73412.8,9.77,9.81,9.81,0,*7E
1531908023.72,55795,17.44,73412.5,9.77,9.91,9.91,0,*7F
1531908024.91,55796,17.44,73416.5,9.79,10.03,10.03,0,*72
1531908026.11,55797,17.44,73412.0,9.79,9.61,9.67,0,*75
1531908027.34,55798,17.44,73414.3,9.79,9.57,9.57,0,*7C
1531908028.53,55799,17.44,73414.5,9.77,9.25,9.33,0,*74
1531908029.79,55800,17.44,73410.8,9.73,8.41,8.55,0,*7D
1531908031.0,55801,17.44,73410.5,9.71,8.27,8.33,0,*7E
1531908032.22,55802,17.44,73414.3,9.67,8.51,8.59,0,*77
1531908033.42,55803,17.44,73412.0,9.65,8.65,8.65,0,*7C
1531908034.64,55804,17.44,73410.5,9.65,8.69,8.75,0,*76
1531908035.87,55805,17.44,73410.8,9.63,8.93,8.93,0,*7C
1531908037.04,55806,17.44,73404.8,9.63,9.29,9.29,0,*7F
1531908038.24,55807,17.44,73408.8,9.65,9.33,9.43,0,*7F
1531908039.44,55808,17.44,73406.5,9.63,8.87,8.97,0,*70
1531908040.67,55809,17.44,73408.0,9.63,9.01,9.11,0,*71
1531908041.84,55810,17.44,73404.8,9.63,9.21,9.29,0,*70
1531908043.01,55811,17.44,73412.3,9.59,9.25,9.29,0,*7C
1531908044.21,55812,17.44,73412.8,9.59,9.15,9.07,0,*70
1531908045.41,55813,17.44,73412.3,9.59,8.71,8.79,0,*7A
1531908046.62,55814,17.44,73414.0,9.59,8.59,8.61,0,*7E
1531908047.87,55815,17.44,73414.5,9.57,8.37,8.47,0,*7D
1531908049.04,55816,17.44,73412.0,9.55,8.09,8.23,0,*73
1531908050.3,55817,17.44,73412.3,9.49,7.61,7.73,0,*74
1531908051.54,55818,17.44,73410.8,9.49,7.91,7.91,0,*78
1531908052.78,55819,17.44,73410.0,9.45,8.13,8.15,0,*73
1531908053.98,55820,17.44,73412.5,9.45,8.15,8.23,0,*7A
1531908055.22,55821,17.44,73410.3,9.45,8.27,8.33,0,*7B
1531908056.43,55822,17.44,73408.0,9.43,8.23,8.33,0,*7A
1531908057.66,55823,17.44,73404.5,9.41,8.41,8.45,0,*7C
1531908058.89,55824,17.44,73404.0,9.41,8.61,8.71,0,*7E
1531908060.14,55825,17.44,73408.3,9.41,8.89,9.01,0,*7F
1531908061.4,55826,17.44,73404.3,9.41,9.11,9.19,0,*75
1531908062.61,55827,17.44,73404.3,9.41,8.79,8.87,0,*7D
1531908063.84,55828,17.44,73404.0,9.41,8.75,8.79,0,*7F
1531908065.07,55829,17.44,73404.0,9.41,8.79,8.89,0,*7D
1531908066.28,55830,17.44,73404.0,9.41,8.79,8.87,0,*7B
1531908067.49,55831,17.44,73402.0,9.43,8.79,8.89,0,*76
1531908068.75,55832,17.44,73402.0,9.41,8.89,8.89,0,*78
1531908070.0,55833,17.44,73402.8,9.41,8.71,8.75,0,*7D
1531908071.25,55834,17.44,73404.0,9.41,8.89,9.11,0,*7E
1531908072.48,55835,17.44,73400.8,9.41,9.39,9.33,0,*75
1531908073.72,55836,17.44,73404.0,9.43,9.49,9.57,0,*71
1531908074.92,55837,17.44,73402.8,9.43,9.67,9.77,0,*7E
1531908076.18,55838,17.44,73404.5,9.41,9.77,9.89,0,*73
1531908077.36,55839,17.44,73404.0,9.43,9.99,9.99,0,*71
1531908078.55,55840,17.44,73404.5,9.43,10.03,10.03,0,*7F
1531908079.75,55841,17.44,73400.0,9.45,9.99,9.99,0,*78
1531908080.99,55842,17.44,73400.5,9.47,9.77,9.81,0,*70
1531908082.19,55843,17.44,73400.3,9.47,9.75,9.81,0,*73
1531908083.36,55844,17.44,73404.5,9.47,9.95,9.95,0,*7F
1531908084.55,55845,17.44,73400.5,9.47,10.03,10.03,0,*7E
1531908085.74,55846,17.44,73400.3,9.47,10.03,10.05,0,*7B
1531908086.99,55847,17.44,73402.5,9.53,9.85,9.89,0,*75
1531908088.22,55848,17.44,73400.3,9.53,9.75,9.77,0,*74
1531908089.44,55849,17.44,73400.0,9.49,9.63,9.61,0,*7E
1531908090.65,55850,17.44,73400.8,9.49,9.61,9.63,0,*76
1531908091.92,55851,17.44,73396.8,9.49,9.49,9.49,0,*75
1531908093.17,55852,17.44,73400.3,9.49,9.49,9.53,0,*7D
1531908094.41,55853,17.44,73404.3,9.49,9.47,9.53,0,*72
1531908095.66,55854,17.44,73402.8,9.53,9.57,9.57,0,*7B
1531908096.89,55855,17.44,73402.3,9.49,9.47,9.49,0,*7F
1531908098.1,55856,17.44,73402.8,9.49,9.47,9.47,0,*72
1531908099.35,55857,17.44,73402.3,9.53,9.57,9.57,0,*78
1531908100.58,55858,17.44,73402.0,9.49,9.75,9.81,0,*77
1531908101.78,55859,17.44,73400.3,9.53,9.95,9.95,0,*76
1531908102.99,55860,17.44,73404.0,9.53,10.05,10.09,0,*70
1531908104.19,55861,17.44,73402.8,9.53,9.95,9.95,0,*7D
1531908105.42,55862,17.44,73404.5,9.53,9.89,9.95,0,*73
1531908106.62,55863,17.44,73404.0,9.53,9.99,9.99,0,*7F
1531908107.84,55864,17.44,73404.5,9.53,10.05,10.05,0,*78
1531908109.03,55865,17.44,73406.3,9.55,10.13,10.09,0,*74
1531908110.24,55866,17.44,73406.5,9.57,10.03,10.09,0,*74
1531908111.46,55867,17.44,73404.8,9.55,10.13,10.19,0,*77
1531908112.73,55868,17.44,73406.8,9.57,10.23,10.23,0,*70
1531908113.99,55869,17.44,73404.8,9.57,10.23,10.27,0,*75
1531908115.24,55870,17.44,73402.8,9.59,10.31,10.31,0,*77
1531908116.46,55871,17.44,73404.0,9.59,10.27,10.33,0,*73
1531908117.73,55872,17.44,73400.8,9.61,10.19,10.19,0,*7E
1531908118.95,55873,17.44,73402.3,9.61,10.05,10.17,0,*7C
1531908120.2,55874,17.44,73402.3,9.61,9.77,9.85,0,*75
1531908121.42,55875,17.44,73404.8,9.59,9.57,9.61,0,*77
1531908122.66,55876,17.44,73404.0,9.59,9.49,9.57,0,*7E
1531908123.87,55877,17.44,73406.0,9.59,9.47,9.49,0,*7E
1531908125.1,55878,17.44,73408.0,9.59,9.49,9.49,0,*7F
1531908126.3,55879,17.44,73408.3,9.61,9.67,9.63,0,*71
1531908127.47,55880,17.44,73410.8,9.59,9.63,9.63,0,*78
1531908128.69,55881,17.44,73408.3,9.59,9.57,9.61,0,*7C
1531908129.92,55882,17.44,73414.3,9.59,9.15,9.19,0,*76
1531908131.13,55883,17.44,73412.5,9.59,9.47,9.49,0,*75
1531908132.35,55884,17.44,73416.0,9.59,9.61,9.57,0,*79
1531908133.52,55885,17.44,73416.5,9.59,9.63,9.63,0,*7D
1531908134.76,55886,17.44,73412.5,9.57,9.43,9.53,0,*71
1531908135.94,55887,17.44,73414.0,9.55,9.33,9.43,0,*74
1531908137.14,55888,17.44,73412.8,9.57,9.47,9.47,0,*7E
1531908138.36,55889,17.44,73412.0,9.55,9.53,9.61,0,*7C
1531908139.57,55890,17.44,73410.5,9.55,9.81,9.99,0,*7C
1531908140.77,55891,17.44,73414.8,9.57,9.91,10.03,0,*45
1531908141.95,55892,17.44,73414.8,9.55,9.91,9.99,0,*7F
1531908143.16,55893,17.44,73416.0,9.57,9.99,10.03,0,*4F
1531908144.35,55894,17.44,73416.8,9.59,10.13,10.17,0,*79
1531908145.6,55895,17.44,73414.3,9.61,10.09,10.19,0,*76
1531908146.77,55896,17.44,73414.3,9.59,9.63,9.63,0,*7F
1531908147.97,55897,17.44,73416.3,9.59,9.85,9.95,0,*7F
1531908149.2,55898,17.44,73412.5,9.61,9.89,9.95,0,*77
1531908150.43,55899,17.44,73412.0,9.61,9.85,9.95,0,*7A
1531908151.61,55900,17.44,73414.5,9.59,9.63,9.71,0,*72
1531908152.86,55901,17.44,73414.5,9.61,9.61,9.49,0,*71
1531908154.12,55902,17.44,73416.5,9.61,9.49,9.53,0,*73
1531908155.29,55903,17.44,73418.0,9.59,9.29,9.29,0,*72
1531908156.49,55904,17.44,73416.0,9.59,9.35,9.29,0,*78
1531908157.69,55905,17.44,73418.8,9.59,9.15,9.25,0,*77
1531908158.9,55906,17.44,73416.3,9.59,9.35,9.47,0,*72
1531908160.14,55907,17.44,73418.5,9.57,9.53,9.61,0,*79
1531908161.35,55908,17.44,73418.8,9.57,9.43,9.47,0,*73
1531908162.56,55909,17.44,73412.8,9.57,9.43,9.43,0,*76
1531908163.78,55910,17.44,73412.3,9.55,9.61,9.61,0,*7C
1531908165.03,55911,17.44,73412.5,9.57,9.77,9.77,0,*7F
1531908166.24,55912,17.44,73414.5,9.57,9.99,10.03,0,*47
1531908167.46,55913,17.44,73414.3,9.59,10.17,10.23,0,*74
1531908168.7,55914,17.44,73414.3,9.59,10.23,10.23,0,*74
1531908169.94,55915,17.44,73412.5,9.59,10.27,10.27,0,*75
1531908171.19,55916,17.44,73412.0,9.61,10.31,10.33,0,*7F
1531908172.43,55917,17.44,73412.0,9.61,10.27,10.33,0,*79
1531908173.65,55918,17.44,73414.0,9.61,10.09,10.17,0,*7C
1531908174.82,55919,17.44,73410.0,9.63,9.99,9.99,0,*70
1531908176.01,55920,17.44,73408.3,9.63,9.99,10.05,0,*47
1531908177.25,55921,17.44,73412.3,9.63,10.19,10.31,0,*71
1531908178.48,55922,17.44,73410.8,9.63,10.27,10.27,0,*78
1531908179.72,55923,17.44,73412.0,9.63,10.27,10.31,0,*7E
1531908180.94,55924,17.44,73408.5,9.65,10.33,10.33,0,*78
1531908182.17,55925,17.44,73410.8,9.65,10.33,10.33,0,*79
1531908183.38,55926,17.44,73412.0,9.65,10.43,10.55,0,*7D
1531908184.63,55927,17.44,73408.0,9.69,10.57,10.61,0,*72
1531908185.88,55928,17.44,73412.5,9.69,10.69,10.71,0,*71
1531908187.11,55929,17.44,73414.5,9.69,10.79,10.89,0,*76
1531908188.34,55930,17.44,73412.0,9.69,10.79,10.89,0,*7E
1531908189.58,55931,17.44,73408.0,9.73,10.65,10.85,0,*75
1531908190.78,55932,17.44,73408.0,9.71,10.65,10.85,0,*74
1531908192.01,55933,17.44,73406.0,9.73,10.75,10.85,0,*76
1531908193.25,55934,17.44,73406.5,9.77,10.85,10.95,0,*7B
1531908194.49,55935,17.44,73408.3,9.79,10.71,10.83,0,*78
1531908195.73,55936,17.44,73406.0,9.79,10.65,10.71,0,*73
1531908196.91,55937,17.44,73408.0,9.79,10.47,10.51,0,*70
1531908198.13,55938,17.44,73402.5,9.79,10.37,10.47,0,*7F
1531908199.36,55939,17.44,73402.8,9.79,10.57,10.57,0,*79
1531908200.59,55940,17.44,73406.5,9.79,10.57,10.61,0,*72
1531908201.82,55941,17.44,73406.5,9.81,10.61,10.69,0,*79
1531908203.06,55942,17.44,73410.5,9.81,10.61,10.69,0,*7A
1531908204.26,55943,17.44,73406.3,9.81,10.51,10.51,0,*73
1531908205.47,55944,17.44,73404.0,9.83,10.37,10.51,0,*76
1531908206.71,55945,17.44,73404.0,9.81,10.27,10.33,0,*70
1531908207.96,55946,17.44,73408.8,9.81,10.13,10.23,0,*75
1531908209.2,55947,17.44,73404.3,9.83,10.19,10.31,0,*7F
1531908210.42,55948,17.44,73406.8,9.81,10.33,10.47,0,*7B
1531908211.63,55949,17.44,73404.5,9.83,10.41,10.51,0,*7A
1531908212.82,55950,17.44,73396.5,9.83,10.47,10.47,0,*73
1531908214.08,55951,17.44,73396.8,9.85,10.31,10.37,0,*72
1531908215.3,55952,17.44,73402.3,9.85,10.05,10.09,0,*7B
1531908216.5,55953,17.44,73400.3,9.83,10.05,10.17,0,*73
1531908217.71,55954,17.44,73396.8,9.81,10.13,10.17,0,*71
1531908218.93,55955,17.44,73396.5,9.83,10.17,10.27,0,*75
1531908220.13,55956,17.44,73398.5,9.83,10.05,10.05,0,*75
1531908221.37,55957,17.44,73398.5,9.83,9.81,9.81,0,*74
1531908222.63,55958,17.44,73396.0,9.81,9.77,9.81,0,*70
1531908223.89,55959,17.44,73398.0,9.81,9.85,9.85,0,*78
1531908225.12,55960,17.44,73394.8,9.81,9.85,9.91,0,*77
1531908226.35,55961,17.44,73396.3,9.81,9.85,9.91,0,*76
1531908227.58,55962,17.44,73392.3,9.81,9.77,9.71,0,*76
1531908228.78,55963,17.44,73394.8,9.79,9.61,9.67,0,*70
1531908230.01,55964,17.44,73398.0,9.79,9.77,9.85,0,*7C
1531908231.21,55965,17.44,73396.8,9.77,9.91,10.03,0,*4D
1531908232.41,55966,17.44,73402.3,9.79,10.05,10.17,0,*70
1531908233.61,55967,17.44,73400.8,9.79,10.05,10.13,0,*75
1531908234.84,55968,17.44,73404.8,9.79,9.77,9.77,0,*7D
1531908236.08,55969,17.44,73402.5,9.79,9.81,9.81,0,*7C
1531908237.34,55970,17.44,73400.0,9.77,9.81,9.81,0,*7A
1531908238.59,55971,17.44,73410.3,9.77,9.81,9.89,0,*73
1531908239.82,55972,17.44,73410.3,9.77,9.77,9.91,0,*70
1531908241.04,55973,17.44,73408.0,9.77,10.03,10.13,0,*78
1531908242.29,55974,17.44,73402.3,9.77,9.77,9.89,0,*7F
1531908243.51,55975,17.44,73398.8,9.77,9.75,9.77,0,*7D
1531908244.77,55976,17.44,73398.5,9.77,9.81,9.81,0,*7C
1531908246.02,55977,17.44,73402.8,9.77,9.81,9.77,0,*74
1531908247.22,55978,17.44,73402.3,9.71,9.75,9.77,0,*76
1531908248.45,55979,17.44,73400.5,9.73,9.89,9.99,0,*76
1531908249.63,55980,17.44,73406.3,9.71,9.95,10.05,0,*42
1531908250.86,55981,17.44,73406.5,9.73,10.05,10.05,0,*70
1531908252.11,55982,17.44,73404.8,9.73,10.17,10.19,0,*7D
1531908253.33,55983,17.44,73406.0,9.73,10.17,10.17,0,*72
1531908254.55,55984,17.44,73410.8,9.73,10.09,10.09,0,*75
1531908255.72,55985,17.44,73404.0,9.79,9.95,9.99,0,*72
1531908256.95,55986,17.44,73410.3,9.77,9.57,9.75,0,*73
1531908258.18,55987,17.44,73406.5,9.73,9.39,9.43,0,*7B
1531908259.41,55988,17.44,73406.3,9.71,9.39,9.49,0,*7C
1531908260.61,55989,17.44,73406.5,9.71,9.75,9.77,0,*78
1531908261.81,55990,17.44,73406.5,9.71,9.85,9.95,0,*73
1531908263.05,55991,17.44,73408.5,9.73,9.89,10.05,0,*4D
1531908264.25,55992,17.44,73408.8,9.71,10.09,10.09,0,*70
1531908265.46,55993,17.44,73408.0,9.71,10.17,10.27,0,*72
1531908266.69,55994,17.44,73404.5,9.71,10.31,10.37,0,*70
1531908267.95,55995,17.44,73404.5,9.77,10.31,10.41,0,*76
1531908269.18,55996,17.44,73404.0,9.71,10.27,10.37,0,*75
1531908270.4,55997,17.44,73404.8,9.73,10.09,10.17,0,*78
1531908271.66,55998,17.44,73402.8,9.73,9.77,9.85,0,*75
1531908272.92,55999,17.44,73404.0,9.73,9.77,9.85,0,*74
1531908274.13,56000,17.44,73410.0,9.73,9.99,10.09,0,*42
1531908275.38,56001,17.44,73412.3,9.73,10.17,10.19,0,*7C
1531908276.6,56002,17.44,73408.3,9.73,10.05,10.09,0,*7D
1531908277.81,56003,17.44,73408.0,9.73,9.99,10.05,0,*4D
1531908279.04,56004,17.44,73408.5,9.73,10.05,10.17,0,*74
1531908280.25,56005,17.44,73414.5,9.77,10.33,10.33,0,*72
1531908281.49,56006,17.44,73416.5,9.77,10.31,10.43,0,*74
1531908282.67,56007,17.44,73416.8,9.79,10.43,10.43,0,*7E
1531908283.88,56008,17.44,73418.3,9.79,10.47,10.57,0,*70
1531908285.06,56009,17.44,73416.5,9.79,10.51,10.69,0,*7B
1531908286.29,56010,17.44,73416.5,9.77,10.47,10.65,0,*76
1531908287.5,56011,17.44,73416.8,9.79,10.61,10.69,0,*71
1531908288.77,56012,17.44,73412.3,9.81,10.71,10.83,0,*70
1531908289.98,56013,17.44,73414.3,9.83,10.75,10.85,0,*71
1531908291.23,56014,17.44,73410.3,9.81,10.61,10.65,0,*7F
1531908292.44,56015,17.44,73410.3,9.81,10.51,10.51,0,*7A
1531908293.66,56016,17.44,73414.0,9.83,10.37,10.47,0,*7C
1531908294.92,56017,17.44,73414.0,9.85,10.19,10.31,0,*76
1531908296.16,56018,17.44,73408.5,9.83,10.27,10.41,0,*75
1531908297.39,56019,17.44,73414.0,9.85,10.41,10.51,0,*73
1531908298.57,56020,17.44,73414.5,9.83,10.51,10.55,0,*7A
1531908299.76,56021,17.44,73412.3,9.83,10.51,10.55,0,*7B
1531908300.99,56022,17.44,73416.3,9.85,10.55,10.61,0,*7D
1531908302.23,56023,17.44,73416.0,9.85,10.55,10.71,0,*7D
1531908303.43,56024,17.44,73418.5,9.87,10.55,10.65,0,*7D
1531908304.65,56025,17.44,73412.3,9.85,10.47,10.55,0,*7E
1531908305.85,56026,17.44,73418.0,9.87,10.51,10.57,0,*7A
1531908307.06,56027,17.44,73416.8,9.87,10.55,10.57,0,*7F
1531908308.29,56028,17.44,73418.0,9.85,10.55,10.61,0,*77
1531908309.53,56029,17.44,73416.5,9.87,10.75,10.79,0,*7F
1531908310.74,56030,17.44,73418.5,9.91,10.79,10.89,0,*73
1531908311.98,56031,17.44,73418.5,9.91,10.71,10.83,0,*70
1531908313.25,56032,17.44,73418.3,9.89,10.99,10.99,0,*77
1531908314.46,56033,17.44,73416.5,9.91,10.99,11.09,0,*77
1531908315.69,56034,17.44,73414.0,9.93,10.93,10.95,0,*7C
1531908316.94,56035,17.44,73412.8,9.93,10.05,10.27,0,*7B
1531908318.17,56036,17.44,73418.0,9.93,10.51,10.61,0,*7B
1531908319.43,56037,17.44,73416.8,9.93,10.61,10.71,0,*78
1531908320.69,56038,17.44,73414.5,9.93,10.65,10.83,0,*7E
1531908321.95,56039,17.44,73416.3,9.93,10.65,10.75,0,*76
1531908323.14,56040,17.44,73416.3,9.95,10.69,10.85,0,*7D
1531908324.35,56041,17.44,73414.3,9.95,10.85,10.95,0,*7F
1531908325.57,56042,17.44,73420.5,9.95,10.85,10.95,0,*7C
1531908326.81,56043,17.44,73416.5,9.99,10.95,11.07,0,*7A
1531908328.0,56044,17.44,73420.0,9.99,11.09,11.21,0,*7D
1531908329.25,56045,17.44,73418.8,10.01,11.13,11.23,0,*4C
1531908330.48,56046,17.44,73416.0,10.01,11.13,11.13,0,*4C
1531908331.72,56047,17.44,73416.5,10.01,10.37,10.55,0,*49
1531908332.96,56048,17.44,73416.5,10.03,10.71,10.71,0,*40
1531908334.19,56049,17.44,73422.3,10.03,10.57,10.61,0,*44
1531908335.41,56050,17.44,73416.8,10.03,10.69,10.71,0,*40
1531908336.64,56051,17.44,73422.3,10.05,10.75,10.93,0,*46
1531908337.83,56052,17.44,73420.5,10.03,10.85,10.93,0,*4C
1531908339.04,56053,17.44,73422.0,10.03,10.75,10.85,0,*45
1531908340.28,56054,17.44,73422.5,10.03,10.75,10.75,0,*4D
1531908341.5,56055,17.44,73420.0,10.05,10.75,10.85,0,*45
1531908342.72,56056,17.44,73420.3,10.05,10.83,10.93,0,*48
1531908343.97,56057,17.44,73422.3,10.03,10.71,10.75,0,*4A
1531908345.21,56058,17.44,73424.0,10.05,10.71,10.83,0,*4A
1531908346.46,56059,17.44,73422.3,10.05,10.75,10.75,0,*46
1531908347.71,56060,17.44,73416.3,10.05,10.71,10.83,0,*41
1531908348.93,56061,17.44,73420.0,10.05,10.83,10.93,0,*4C
1531908350.16,56062,17.44,73420.8,10.05,10.75,10.93,0,*46
1531908351.38,56063,17.44,73418.5,10.05,10.83,10.85,0,*49
1531908352.57,56064,17.44,73420.0,10.05,10.85,10.93,0,*4F
1531908353.85,56065,17.44,73420.5,10.07,10.75,10.79,0,*47
1531908355.12,56066,17.44,73420.8,10.07,10.65,10.75,0,*49
1531908356.39,56067,17.44,73416.0,10.07,10.71,10.75,0,*4D
1531908357.67,56068,17.44,73418.5,10.07,10.71,10.79,0,*4E
1531908358.91,56069,17.44,73418.3,10.09,10.75,10.83,0,*40
1531908360.13,56070,17.44,73418.3,10.07,10.85,10.85,0,*4F
1531908361.41,56071,17.44,73414.3,10.07,10.79,10.79,0,*4E
1531908362.69,56072,17.44,73416.5,10.07,10.75,10.79,0,*41
1531908363.93,56073,17.44,73418.8,10.09,10.75,10.83,0,*4B
1531908365.18,56074,17.44,73420.5,10.09,10.79,10.83,0,*40
1531908366.42,56075,17.44,73424.3,10.09,10.65,10.65,0,*44
1531908367.69,56076,17.44,73420.0,10.07,10.19,10.23,0,*40
1531908368.91,56077,17.44,73418.8,10.05,9.43,9.53,0,*4B
1531908370.15,56078,17.44,73416.0,10.05,9.35,9.39,0,*49
1531908371.38,56079,17.44,73420.5,10.03,9.53,9.53,0,*42
1531908372.58,56080,17.44,73418.3,10.01,9.33,9.33,0,*46
1531908373.77,56081,17.44,73418.5,9.99,8.79,8.87,0,*7F
1531908375.01,56082,17.44,73416.3,9.93,8.75,8.71,0,*73
1531908376.22,56083,17.44,73416.5,9.91,9.01,9.03,0,*76
1531908377.47,56084,17.44,73418.3,9.89,9.01,9.11,0,*7B
1531908378.68,56085,17.44,73412.3,9.87,9.07,9.11,0,*72
1531908379.92,56086,17.44,73412.8,9.85,9.15,9.15,0,*74
1531908381.17,56087,17.44,73412.5,9.85,9.15,9.15,0,*75
1531908382.39,56088,17.44,73410.3,9.85,9.15,9.21,0,*7D
1531908383.57,56089,17.44,73408.5,9.83,9.33,9.33,0,*7D
1531908384.77,56090,17.44,73404.8,9.83,9.33,9.39,0,*7F
1531908385.97,56091,17.44,73404.0,9.83,9.47,9.57,0,*75
1531908387.15,56092,17.44,73402.0,9.83,9.63,9.71,0,*74
1531908388.33,56093,17.44,73404.5,9.83,9.75,9.75,0,*76
1531908389.59,56094,17.44,73404.5,9.81,9.85,9.85,0,*73
1531908390.79,56095,17.44,73402.3,9.81,9.95,10.03,0,*45
1531908392.01,56096,17.44,73406.8,9.81,10.03,10.05,0,*77
1531908393.21,56097,17.44,73406.0,9.81,9.95,10.05,0,*41
1531908394.42,56098,17.44,73404.3,9.81,9.91,9.91,0,*7F
1531908395.68,56099,17.44,73406.0,9.81,9.81,9.81,0,*7E
1531908396.93,56100,17.44,73404.8,9.81,9.77,9.77,0,*7F
1531908398.14,56101,17.44,73406.8,9.81,9.67,9.67,0,*7E
1531908399.38,56102,17.44,73406.3,9.81,9.57,9.61,0,*78
1531908400.57,56103,17.44,73408.0,9.79,9.47,9.47,0,*7B
1531908401.76,56104,17.44,73408.3,9.79,9.29,9.39,0,*7D
1531908402.96,56105,17.44,73410.5,9.79,9.61,9.67,0,*7B
1531908404.17,56106,17.44,73410.8,9.79,9.85,9.91,0,*7B
1531908405.36,56107,17.44,73410.5,9.79,9.95,10.05,0,*4E
1531908406.6,56108,17.44,73410.5,9.79,10.23,10.23,0,*70
1531908407.82,56109,17.44,73408.3,9.79,10.27,10.33,0,*74
1531908409.03,56110,17.44,73408.0,9.79,10.37,10.33,0,*7D
1531908410.27,56111,17.44,73408.3,9.81,10.33,10.37,0,*7B
1531908411.51,56112,17.44,73410.8,9.81,10.33,10.37,0,*78
1531908412.75,56113,17.44,73410.0,9.81,10.27,10.33,0,*78
1531908413.99,56114,17.44,73408.5,9.83,10.19,10.19,0,*78
1531908415.21,56115,17.44,73410.0,9.81,10.13,10.17,0,*7F
1531908416.43,56116,17.44,73408.0,9.81,10.05,10.13,0,*7F
1531908417.64,56117,17.44,73408.5,9.81,10.03,10.03,0,*79
1531908418.83,56118,17.44,73410.5,9.83,9.99,10.05,0,*49
1531908420.05,56119,17.44,73408.8,9.81,10.05,10.13,0,*70
1531908421.27,56120,17.44,73410.0,9.83,10.09,10.19,0,*7E
1531908422.47,56121,17.44,73410.3,9.83,10.05,10.13,0,*79
1531908423.72,56122,17.44,73406.8,9.83,10.27,10.31,0,*7A
1531908424.92,56123,17.44,73408.0,9.83,9.89,9.95,0,*71
1531908426.16,56124,17.44,73406.8,9.83,10.19,10.27,0,*76
1531908427.41,56125,17.44,73408.8,9.83,10.31,10.31,0,*7A
1531908428.67,56126,17.44,73406.0,9.85,10.31,10.41,0,*78
1531908429.93,56127,17.44,73414.5,9.85,10.31,10.37,0,*78
1531908431.16,56128,17.44,73412.0,9.85,10.41,10.51,0,*70
1531908432.37,56129,17.44,73410.0,9.85,10.47,10.51,0,*77
1531908433.63,56130,17.44,73410.0,9.85,10.27,10.37,0,*79
1531908434.86,56131,17.44,73410.8,9.87,10.41,10.41,0,*7B
1531908436.04,56132,17.44,73414.3,9.87,10.43,10.43,0,*78
1531908437.29,56133,17.44,73410.8,9.85,10.37,10.41,0,*7A
1531908438.55,56134,17.44,73412.0,9.85,10.37,10.41,0,*7D
1531908439.8,56135,17.44,73418.3,9.87,10.23,10.31,0,*7C
1531908441.01,56136,17.44,73414.3,9.87,10.19,10.33,0,*74
1531908442.28,56137,17.44,73412.8,9.85,10.27,10.31,0,*78
1531908443.52,56138,17.44,73414.0,9.87,10.23,10.31,0,*71
1531908444.78,56139,17.44,73416.8,9.89,10.27,10.37,0,*7C
1531908446.02,56140,17.44,73418.0,9.89,10.47,10.57,0,*72
1531908447.22,56141,17.44,73416.3,9.91,10.55,10.57,0,*79
1531908448.48,56142,17.44,73414.5,9.89,10.57,10.61,0,*74
1531908449.74,56143,17.44,73414.3,9.89,10.57,10.61,0,*75
1531908450.97,56144,17.44,73414.8,9.89,10.57,10.69,0,*7A
1531908452.23,56145,17.44,73414.3,9.89,10.57,10.61,0,*73
1531908453.42,56146,17.44,73410.0,9.91,10.47,10.55,0,*7F
1531908454.62,56147,17.44,73408.8,9.89,10.43,10.43,0,*74
1531908455.84,56148,17.44,73410.0,9.91,10.17,10.27,0,*71
1531908457.06,56149,17.44,73414.5,9.91,10.37,10.47,0,*74
1531908458.25,56150,17.44,73414.3,9.91,10.47,10.55,0,*78
1531908459.46,56151,17.44,73408.0,9.91,10.33,10.37,0,*7E
1531908460.69,56152,17.44,73410.8,9.91,10.37,10.37,0,*79
1531908461.88,56153,17.44,73408.8,9.91,10.47,10.47,0,*78
1531908463.07,56154,17.44,73412.3,9.91,10.47,10.55,0,*7C
1531908464.26,56155,17.44,73412.0,9.91,10.55,10.55,0,*7E
1531908465.47,56156,17.44,73408.0,9.91,10.43,10.57,0,*78
1531908466.72,56157,17.44,73410.5,9.93,10.61,10.57,0,*7B
1531908467.98,56158,17.44,73412.5,9.93,10.57,10.61,0,*74
1531908469.23,56159,17.44,73410.0,9.93,10.61,10.61,0,*70
1531908470.47,56160,17.44,73408.3,9.95,10.65,10.65,0,*7C
1531908471.7,56161,17.44,73412.8,9.93,10.51,10.57,0,*7D
1531908472.91,56162,17.44,73410.0,9.93,10.47,10.51,0,*7F
1531908474.1,56163,17.44,73408.3,9.95,10.51,10.55,0,*7B
1531908475.35,56164,17.44,73408.8,9.93,10.41,10.41,0,*7E
1531908476.62,56165,17.44,73408.3,9.93,10.31,10.41,0,*78
1531908477.84,56166,17.44,73410.0,9.95,10.17,10.27,0,*79
1531908479.05,56167,17.44,73410.5,9.93,10.05,10.17,0,*7E
1531908480.32,56168,17.44,73408.3,9.93,10.19,10.27,0,*7F
1531908481.58,56169,17.44,73410.5,9.93,10.31,10.41,0,*74
1531908482.81,56170,17.44,73408.8,9.93,10.37,10.51,0,*7B
1531908484.04,56171,17.44,73408.3,9.93,10.41,10.51,0,*7B
1531908485.27,56172,17.44,73408.3,9.93,10.51,10.57,0,*7F
1531908486.49,56173,17.44,73410.5,9.93,10.47,10.47,0,*78
1531908487.68,56174,17.44,73410.8,9.95,10.47,10.47,0,*79
1531908488.94,56175,17.44,73412.0,9.93,10.31,10.41,0,*79
1531908490.21,56176,17.44,73414.8,9.93,10.31,10.37,0,*7B
1531908491.46,56177,17.44,73412.3,9.93,10.37,10.41,0,*7D
1531908492.73,56178,17.44,73412.3,9.93,10.37,10.31,0,*75
1531908493.94,56179,17.44,73408.8,9.93,10.09,10.17,0,*7D
1531908495.14,56180,17.44,73410.5,9.93,9.99,9.99,0,*74
1531908496.35,56181,17.44,73410.8,9.91,9.89,9.95,0,*7A
1531908497.58,56182,17.44,73410.0,9.91,9.89,9.89,0,*74
1531908498.81,56183,17.44,73408.8,9.89,9.89,9.95,0,*71
1531908499.99,56184,17.44,73410.0,9.91,9.91,10.03,0,*41
1531908501.21,56185,17.44,73414.5,9.89,10.13,10.17,0,*7E
1531908502.47,56186,17.44,73412.0,9.89,10.27,10.37,0,*78
1531908503.68,56187,17.44,73414.8,9.91,10.37,10.47,0,*76
1531908504.9,56188,17.44,73408.5,9.91,10.37,10.47,0,*79
1531908506.11,56189,17.44,73412.5,9.91,10.47,10.57,0,*7E
1531908507.33,56190,17.44,73408.8,9.91,10.69,10.71,0,*7E
1531908508.59,56191,17.5,73412.5,9.93,10.61,10.65,0,*70
1531908509.83,56192,17.44,73410.5,9.91,10.71,10.83,0,*78
1531908511.06,56193,17.44,73408.8,9.93,10.85,10.95,0,*77
1531908512.3,56194,17.44,73410.5,9.95,10.95,11.07,0,*7D
1531908513.51,56195,17.44,73408.5,9.99,10.89,10.99,0,*7B
1531908514.75,56196,17.44,73408.5,9.99,10.95,11.07,0,*73
1531908515.98,56197,17.44,73404.3,9.99,10.99,11.07,0,*7E
1531908517.19,56198,17.44,73402.5,9.99,10.89,10.95,0,*7A
1531908518.38,56199,17.44,73400.8,9.99,10.85,10.85,0,*76
1531908519.64,56200,17.44,73404.3,10.01,10.71,10.71,0,*4C
1531908520.88,56201,17.44,73410.3,9.99,10.65,10.75,0,*75
1531908522.12,56202,17.44,73400.8,10.01,10.69,10.71,0,*47